www.pogodaiklimat.ru

Погода и климат >> Архив погоды >> Австралия >> Западная Австралия >> База ВВС Curtin


ПОГОДА на Базе ВВС Curtin

  • Прогноз погоды на Базе ВВС Curtin
  • Монитор погоды на Базе ВВС Curtin

АРХИВ ПОГОДЫ на Базе ВВС Curtin

Время (UTC), дата Ветер
(напр.,м/с)
 
Видим.   Явления Облачность Т
(С)
Тd
(С)
f
(%)
Тe
(С)
Тes
(С)
Комфортность P
(гПа)
Po
(гПа)
Тmin
(С)
Tmax
(С)
R
(мм)
R24
(мм)
S
(см)
16 16.01 Ю 3 н/о 5/0
[]
+25.7 +23.4 87 +35 +35 очень
душно
1007.1 998.4
18 16.01 СВ 2 н/о н/о +25.0 +24.3 96 +35 +35 очень
душно
1006.0 997.3
19 16.01 СЗ 2 н/о н/о +25.9 +24.5 92 +36 +36 очень
душно
1005.2 996.5
21 16.01 штиль 0 н/о н/о +25.6 +25.1 97 +37 +37 очень
душно
1005.6 996.9
22 16.01 ЮЗ 2 н/о н/о +26.3 +24.7 91 +37 +37 очень
душно
1006.6 997.9
00 17.01 ЮЗ 3 н/о н/о +29.1 +25.7 82 +43 +43 опасность
перегрева
1008.1 999.4
01 17.01 Ю 4 н/о 9/9 600 м
[]
+30.7 +25.5 74 +45 +46 опасность
перегрева
1008.6 999.9 +24.0
03 17.01 З 2 н/о н/о +33.4 +24.3 59 +46 +46 опасность
перегрева
1007.1 998.4
04 17.01 З 3 н/о 1/1 1500 м
[]
+34.2 +22.9 52 +44 +62 опасность
перегрева
1005.5 996.8
06 17.01 СЗ 3 н/о н/о +36.1 +22.6 46 +45 +45 опасность
перегрева
1003.3 994.6
07 17.01 З 4 н/о н/о +37.6 +22.1 41 +46 +46 опасность
перегрева
1002.6 993.9
09 17.01 С 4 н/о н/о +34.7 +23.7 53 +46 +46 опасность
перегрева
1002.4 993.7
10 17.01 СЗ 5 н/о ливневой дождь {туман} 10/10 1000 м
[]
+28.3 +24.3 79 +40 +40 очень
душно
1003.8 995.1
12 17.01 ЮВ 3 н/о н/о +23.0 +22.7 98 +32 +32 очень
душно
1006.6 997.9
13 17.01 С 4 н/о сильн. ливневой дождь {туман} 9/0
[]
+24.3 +24.3 100 +34 +34 очень
душно
1007.6 998.9 +38.3
15 17.01 СЗ 2 н/о н/о +25.1 +24.2 95 +35 +35 очень
душно
1006.8 998.1
16 17.01 ЮЗ 1 н/о {туман} 8/0
[]
+25.1 +24.6 97 +35 +35 очень
душно
1005.4 996.7
18 17.01 ЮВ 1 н/о н/о +25.0 +24.8 99 +35 +35 очень
душно
1004.4 995.7
19 17.01 Ю 3 н/о {туман} 3/0
[]
+25.1 +25.1 100 +36 +36 очень
душно
1004.0 995.3
21 17.01 ЮВ 2 н/о н/о +25.4 +25.4 100 +37 +37 очень
душно
1006.1 997.4
22 17.01 В 3 н/о ливневой дождь {туман} 10/10 300 м
[]
+25.3 +25.3 100 +36 +36 очень
душно
1007.4 998.7
00 18.01 З 3 н/о н/о +28.3 +26.3 89 +43 +43 опасность
перегрева
1006.9 998.2
01 18.01 Ю 5 н/о {туман} 10/0
[]
+30.1 +25.6 77 +44 +48 опасность
перегрева
1007.9 999.2 +22.2
03 18.01 Ю 6 н/о н/о +32.7 +24.5 62 +45 +45 опасность
перегрева
1007.1 998.4
04 18.01 Ю 4 н/о н/о +33.4 +24.0 58 +45 +45 опасность
перегрева
1006.1 997.4
06 18.01 В 3 н/о н/о +34.8 +22.8 50 +45 +45 опасность
перегрева
1004.3 995.6
07 18.01 ЮВ 3 н/о н/о +35.3 +21.9 46 +44 +44 опасность
перегрева
1003.4 994.7
09 18.01 СЗ 2 н/о н/о +35.0 +23.3 51 +46 +46 опасность
перегрева
1003.1 994.4
10 18.01 С 2 н/о н/о +33.4 +24.6 60 +46 +46 опасность
перегрева
1003.5 994.8
12 18.01 С 2 н/о н/о +30.8 +25.6 74 +45 +45 опасность
перегрева
1005.5 996.8
13 18.01 С 2 н/о 10/0
[]
+30.0 +26.2 80 +45 +45 опасность
перегрева
1006.6 997.9 +36.9
15 18.01 В 3 н/о н/о +28.7 +25.5 83 +42 +42 опасность
перегрева
1007.1 998.4
16 18.01 СЗ 3 н/о 4/0
[]
+28.4 +25.8 86 +42 +42 опасность
перегрева
1006.0 997.3
18 18.01 СЗ 2 н/о н/о +28.3 +25.7 86 +42 +42 опасность
перегрева
1005.4 996.7
19 18.01 С 2 н/о 10/0
[]
+27.9 +26.1 90 +42 +42 опасность
перегрева
1005.6 996.9
21 18.01 С 2 н/о н/о +27.6 +26.5 94 +42 +42 опасность
перегрева
1006.0 997.3
22 18.01 З 2 н/о 1/0
[]
+28.7 +27.1 91 +45 +46 опасность
перегрева
1007.1 998.4
00 19.01 З 3 н/о н/о +31.5 +25.8 72 +47 +47 опасность
перегрева
1007.9 999.2
01 19.01 СЗ 2 н/о н/о +32.6 +24.4 62 +45 +45 опасность
перегрева
1008.2 999.5 +27.7
03 19.01 СВ 2 н/о н/о +36.0 +24.3 51 +48 +48 опасность
перегрева
1006.8 998.1
04 19.01 ЮВ 3 н/о н/о +37.5 +23.2 44 +47 +47 опасность
перегрева
1006.0 997.3
06 19.01 ЮВ 4 н/о н/о +37.7 +20.9 38 +44 +44 опасность
перегрева
1003.9 995.2
07 19.01 ЮВ 4 н/о 6/0
[]
+38.6 +21.3 37 +46 +51 опасность
перегрева
1002.9 994.2
09 19.01 С 3 н/о н/о +33.0 +23.6 58 +44 +44 опасность
перегрева
1003.4 994.7
10 19.01 СВ 7 н/о сильн. ливневой дождь {туман} 10/10 300 м
[]
+25.5 +24.3 93 +35 +35 очень
душно
1005.8 997.1
12 19.01 З 4 н/о н/о +25.9 +23.9 89 +36 +36 очень
душно
1009.4 1000.7
13 19.01 З 4 н/о сильн. ливневой дождь {туман} 10/0
[]
+25.0 +24.3 96 +35 +35 очень
душно
1008.5 999.8 +39.4
15 19.01 З 3 н/о н/о +25.3 +24.3 94 +35 +35 очень
душно
1007.5 998.8
16 19.01 ЮЗ 4 н/о {туман} 10/0
[]
+25.5 +24.6 95 +36 +36 очень
душно
1006.5 997.8
18 19.01 ЮВ 3 н/о н/о +25.5 +25.0 97 +36 +36 очень
душно
1006.4 997.7
19 19.01 ЮВ 4 н/о {туман} 10/0
[]
+25.4 +25.1 98 +36 +36 очень
душно
1006.6 997.9
21 19.01 В 2 н/о н/о +25.3 +24.8 97 +36 +36 очень
душно
1007.2 998.5
22 19.01 В 2 н/о н/о +25.6 +25.1 97 +37 +37 очень
душно
1007.5 998.8
00 20.01 ЮВ 4 н/о н/о +30.5 +23.4 66 +41 +41 опасность
перегрева
1007.6 998.9
01 20.01 ЮВ 5 н/о н/о +32.8 +23.2 57 +43 +43 опасность
перегрева
1007.6 998.9 +25.0
03 20.01 ЮВ 4 н/о н/о +36.0 +22.2 45 +45 +45 опасность
перегрева
1006.8 998.1
04 20.01 В 3 н/о н/о +37.1 +21.6 41 +45 +45 опасность
перегрева
1006.0 997.3
06 20.01 ЮВ 3 н/о н/о +38.3 +20.1 35 +44 +44 опасность
перегрева
1004.3 995.6
07 20.01 ЮВ 5 н/о н/о +39.1 +20.4 34 +45 +45 опасность
перегрева
1003.4 994.7
09 20.01 В 3 н/о н/о +39.0 +20.3 34 +45 +45 опасность
перегрева
1002.5 993.8
10 20.01 В 2 н/о н/о +37.9 +21.9 40 +46 +46 опасность
перегрева
1003.2 994.5
12 20.01 СЗ 2 н/о н/о +33.0 +25.8 66 +48 +48 опасность
перегрева
1004.8 996.1
13 20.01 СЗ 2 н/о 10/0
[]
+32.8 +25.1 64 +47 +47 опасность
перегрева
1005.6 996.9 +40.0
15 20.01 С 5 н/о н/о +30.3 +27.7 86 +49 +49 опасность
перегрева
1006.3 997.6
16 20.01 СЗ 5 н/о н/о +29.9 +26.7 83 +46 +46 опасность
перегрева
1005.3 996.6
18 20.01 С 5 н/о н/о +29.0 +25.2 80 +42 +42 опасность
перегрева
1005.7 997.0
19 20.01 ЮЗ 6 н/о слаб. ливневой дождь со снегом {туман} 10/10 600 м
[]
+24.2 +24.2 100 +33 +33 очень
душно
1006.8 998.1
21 20.01 З 5 н/о н/о +23.8 +23.8 100 +32 +32 очень
душно
1005.5 996.8
22 20.01 СЗ 3 н/о слаб. дождь {туман} 9/0
[]
+23.7 +23.0 96 +31 +32 очень
душно
1004.8 996.1
00 21.01 В 2 н/о н/о +25.9 +25.0 95 +37 +37 очень
душно
1005.2 996.5
01 21.01 Ю 3 н/о {туман} н/о +29.0 +23.9 74 +40 +40 очень
душно
1005.4 996.7 +22.7
03 21.01 В 2 н/о н/о +34.2 +22.6 51 +44 +44 опасность
перегрева
1005.4 996.7
04 21.01 СЗ 1 н/о н/о +36.0 +24.3 51 +48 +48 опасность
перегрева
1005.0 996.3
06 21.01 СЗ 4 н/о н/о +36.6 +24.1 49 +48 +48 опасность
перегрева
1003.5 994.8
07 21.01 СЗ 5 н/о 3/3 1500 м
[]
+35.0 +25.8 59 +50 +54 опасность
перегрева
1003.0 994.3
09 21.01 СЗ 4 н/о н/о +34.7 +23.7 53 +46 +46 опасность
перегрева
1001.6 993.0
10 21.01 СЗ 3 н/о н/о +33.0 +23.9 59 +45 +45 опасность
перегрева
1003.0 994.3
12 21.01 С 3 н/о н/о +29.9 +24.3 72 +42 +42 опасность
перегрева
1005.1 996.4
13 21.01 С 3 н/о н/о +29.3 +25.1 78 +42 +42 опасность
перегрева
1005.1 996.4 +37.7
15 21.01 ЮЗ 1 н/о н/о +28.3 +23.7 76 +39 +39 очень
душно
1006.1 997.4
16 21.01 СВ 1 н/о 10/0
[]
+27.5 +24.1 82 +38 +38 очень
душно
1005.1 996.4
18 21.01 ЮВ 6 н/о н/о +27.7 +23.1 76 +37 +37 очень
душно
1005.1 996.4
19 21.01 В 2 н/о 8/0
[]
+26.8 +23.3 81 +36 +36 очень
душно
1004.4 995.7
21 21.01 СВ 5 н/о н/о +26.4 +23.3 83 +36 +36 очень
душно
1004.4 995.7
22 21.01 СВ 4 н/о 10/0
[]
+26.6 +23.7 84 +36 +37 очень
душно
1004.6 995.9
00 22.01 С 4 н/о н/о +30.6 +21.1 57 +38 +38 очень
душно
1004.7 996.0
01 22.01 С 3 н/о н/о +32.4 +21.3 52 +40 +40 очень
душно
1004.9 996.2 +26.0
03 22.01 В 3 н/о н/о +35.2 +21.8 46 +43 +43 опасность
перегрева
1004.7 996.0
04 22.01 СВ 5 н/о н/о +35.5 +21.0 43 +43 +43 опасность
перегрева
1004.4 995.7
06 22.01 СВ 4 н/о н/о +34.9 +21.9 47 +43 +43 опасность
перегрева
1003.3 994.6
07 22.01 В 3 н/о 10/0
[]
+35.0 +20.5 43 +42 +46 опасность
перегрева
1002.6 993.9
09 22.01 СЗ 4 н/о н/о +32.6 +24.6 63 +46 +46 опасность
перегрева
1002.2 993.5
10 22.01 СЗ 4 н/о н/о +31.2 +26.2 75 +47 +47 опасность
перегрева
1002.2 993.5
12 22.01 З 3 н/о н/о +29.5 +25.7 80 +44 +44 опасность
перегрева
1004.2 995.5
13 22.01 СВ 7 н/о слаб. ливневой дождь со снегом {туман} 10/10 200 м
[]
+23.9 +23.7 99 +32 +32 очень
душно
1007.0 998.3 +36.7
15 22.01 С 2 н/о н/о +24.5 +24.5 100 +34 +34 очень
душно
1005.6 996.9
16 22.01 СЗ 2 н/о слаб. дождь {туман} 10/0
[]
+24.6 +24.4 99 +34 +34 очень
душно
1004.9 996.2
18 22.01 З 2 н/о н/о +24.6 +24.4 99 +34 +34 очень
душно
1003.3 994.6
19 22.01 Ю 3 н/о {туман} 10/0
[]
+24.7 +24.7 100 +35 +35 очень
душно
1003.3 994.6
21 22.01 ЮВ 4 н/о н/о +24.9 +24.9 100 +35 +35 очень
душно
1004.0 995.3
22 22.01 ЮВ 3 н/о 10/0
[]
+25.2 +25.2 100 +36 +36 очень
душно
1004.9 996.2
00 23.01 В 3 н/о н/о +27.8 +25.2 86 +40 +40 очень
душно
1005.6 996.9
01 23.01 ЮВ 4 н/о н/о +30.8 +24.4 69 +43 +43 опасность
перегрева
1005.3 996.6 +23.7
03 23.01 В 5 н/о н/о +32.9 +23.2 57 +43 +43 опасность
перегрева
1004.0 995.3
04 23.01 ЮВ 4 н/о 6/6 1000 м
[]
+33.5 +23.8 57 +45 +51 опасность
перегрева
1003.1 994.4
06 23.01 В 5 н/о н/о +35.1 +23.8 52 +46 +46 опасность
перегрева
1000.2 991.6
07 23.01 ЮВ 6 н/о 5/5 1000 м
[]
+35.7 +24.6 53 +48 +51 опасность
перегрева
999.5 990.9
09 23.01 С 8 н/о н/о +27.0 +25.8 93 +40 +40 очень
душно
1000.3 991.7
10 23.01 С 5 н/о в посл. час дождь со снегом {туман} 10/10 1000 м
[]
+26.2 +25.7 97 +39 +39 очень
душно
1001.3 992.7
12 23.01 ЮВ 3 н/о н/о +25.8 +25.8 100 +38 +38 очень
душно
1003.4 994.7
13 23.01 ЮВ 3 н/о в посл. час дождь со снегом {туман} 9/9 1500 м
[]
+26.0 +26.0 100 +39 +39 очень
душно
1003.4 994.7 +36.3

 

Местоположение метеостанции База ВВС Curtin (Западная Австралия, Австралия): широта -17.58 долгота 123.82 высота над уровнем моря 78 м.

В архиве по умолчанию представлена погода на Базе ВВС Curtin за последнюю неделю. Архивные данные за месяц целиком и за предыдущие месяцы, начиная с января 2011 года, Вы можете получить, выбрав интересующий диапазон дат из раскрывающегося списка и нажав кнопку "Ввод!".


*Определитесь, кто Вы:
робот инопланетянин человек

Внимание! Время в таблицах - всемирное. Для получения местного времени необходимо прибавить поправку, которая равна 8 ч.

Смотрите также архив погоды в соседних городах и на ближайших метеорологических станциях:

Погода в Дерби (Северная территория, Австралия) (30 км)
Погода в Робак Запад (Западная Австралия, Австралия) (163 км)
Погода в Бруме (Западная Австралия, Австралия) (173 км)
Погода в Фицрой-Кроссинге (Западная Австралия, Австралия) (196 км)
Погода на Острове Адель (Западная Австралия, Австралия) (241 км)
Погода на Острове Брауз (Западная Австралия, Австралия) (387 км)
Погода в Мандоре (Западная Австралия, Австралия) (394 км)
Погода в Холс Крик (Западная Австралия, Австралия) (413 км)
Погода в Калумбуру (Западная Австралия, Австралия) (474 км)
Погода в Трускотте (Западная Австралия, Австралия) (476 км)

Пояснения к столбцам:

Ветер - указаны скорость ветра в м/с - средняя за 10 мин, порывы в срок и между сроками (в фигурных скобках) и направление, откуда дует ветер: С - северный, СВ - северо-восточный, В - восточный, ЮВ - юго-восточный, Ю - южный, ЮЗ - юго-западный, З - западный, СЗ - северо-западный.
Видимость - горизонтальная дальность видимости в метрах или километрах. При видимости от 1 до 10 км при отсутствии осадков обычно наблюдается дымка, при ухудшении видимости до 1 км и менее - туман. В сухую погоду видимость может ухудшаться дымом, пылью или мглою.
Явления - указаны атмосферные явления, наблюдавшиеся в срок или в последний час перед сроком; фигурными скобками обозначены явления, наблюдавшиеся между сроками (за 1-3 часа до срока); квадратными скобками обозначены град или гололедные отложения с указанием их диаметра в мм.
Облачность - указаны через наклонную черту общая и нижняя облачность в баллах и высота нижней границы облаков в метрах; квадратными скобками обозначены формы облаков: Ci - перистые, Cs - перисто-слоистые, Cc - перисто-кучевые, Ac - высококучевые, As - высокослоистые, Sc - слоисто-кучевые, Ns - слоисто-дождевые, Cu - кучевые, Cb - кучево-дождевые. Подробнее классификацию облаков см. в Атласе облаков (PDF).
T - Температура воздуха - температура, измеренная на высоте 2 м над землей.
Td - Температура точки росы - температура, при понижении до которой содержащийся в воздухе водяной пар достигнет насыщения.
f - Относительная влажность воздуха - влажноcть воздуха, измеренная на высоте 2 м над землей.
Te - Эффективная температура - температура, которую ощущает одетый по сезону человек в тени. Характеристика душности погоды. При расчете учитывается влияние влажности воздуха и скорости ветра на теплоощущения человека.
Tes - Эффективная температура на солнце - температура, которую ощущает человек, с поправкой на солнечный нагрев. Характеристика знойности погоды. Зависит от высоты солнца над горизонтом, облачности и скорости ветра. Ночью, в пасмурную погоду, а также при ветре 12 м/с и более поправка равна нулю.
P - Атмосферное давление - приведенное к уровню моря атмосферное давление.
Po - Атмосферное давление - измеренное на уровне метеостанции атмосферное давление.
Tmin - Минимальная температура - минимум температуры воздуха на высоте 2 м над землей.
Tmax - Максимальная температура - максимум температуры воздуха на высоте 2 м над землей.
R - Количество осадков - Количество выпавших осадков за период времени, мм. При наведении курсора мыши на число - период времени, за который выпало указанное количество осадков.
R24 - Количество осадков - Количество выпавших осадков за 24 часа, мм.
S - Снежный покров - Высота снежного покрова, см. При наведении курсора мыши на число - состояние снежного покрова и степень покрытия местности в баллах.